SCP
0 0 0 0 0 0 0 0 0 0 0 0 0 0 0 0 0 0 0 0 0 0 0 0 0 0 0
0 0 0 0 0 -0 0 0 0 0 0 0 0 0 0 0 0 0 0 0 0 0 0 0 0 0 0
0 0 0 0 0 0 0 0 0 0 0 0 0 0 0 0 0 0 0 0 0 0 0 0 0 0 0
0 0 0 0 0 0 0 0 0 0 0 0 0 0 0 0 0 0 0 0 0 0 0 0 0 0 0
0 0 0 0 0 0 0 0 0 0 0 0 0 0 0 0 0 0 0 0 0 0 0 0 0 0 0
0 0 0 0 0 0 0 0 0 0 0 0 0 0 0 0 0 0 0 0 0 0 0 0 0 0 0
0 0 0 0 0 0 0 0 0 0 0 0 0 0 0 0 0 0 0 0 0 0 0 0 0 0 0
0 0 0 0 0 0 0 0 0 0 0 0 0 0 0 0 0 0 0 0 0 0 0 0 0 0 0
0 0 0 0 0 0 0 0 0 0 0 0 0 0 0 0 0 0 0 0 0 0 0 0 0 0 0
0 0 0 0 0 0 0 0 0 0 0 0 0 0 0 0 0 0 0 0 0 0 0 0 0 0 0
0 0 0 0 0 0 0 0 0 0 0 0 0 0 0 0 0 0 0 0 0 0 0 0 0 0 0
0 0 0 0 0 0 0 0 0 0 0 0 0 0 0 0 0 0 0 0 0 0 0 0 0 0 0
0 0 0 0 0 0 0 0 0 0 0 0 0 0 0 0 0 0 0 0 0 0 0 0 0 0 0
0 0 0 0 0 0 0 0 0 0 0 0 0 0 0 0 0 0 0 0 0 0 0 0 0 0 0
0 0 0 0 0 0 0 0 0 0 0 0 0 0 0 0 0 0 0 0 0 0 0 0 0 0 0
0 0 0 0 0 0 0 0 0 0 0 0 0 0 0 0 0 0 0 0 0 0 0 0 0 0 0
Wind_Speed_500mb
14 14 14 14 15 15 16 16 17 18 20 24 26 30 31 30 33 36 36 36 38 39 44 51 51 49 51
14 14 14 13 12 11 10 9 10 10 11 14 16 20 25 31 37 38 41 41 42 43 45 48 53 52 54
18 18 18 17 16 14 12 11 9 9 9 11 13 16 19 23 27 33 40 46 48 48 49 50 50 55 57
14 14 14 15 14 12 10 7 5 7 10 14 18 21 25 30 32 33 34 38 46 54 57 54 57 58 62
12 11 11 9 8 7 6 7 10 15 21 25 29 32 36 39 42 44 44 43 42 49 55 61 64 64 64
15 12 12 10 8 8 12 18 23 28 33 37 41 43 45 47 49 52 55 56 55 54 53 56 57 66 70
18 17 14 12 12 15 20 26 33 40 46 50 52 53 52 52 52 54 55 58 62 63 63 61 58 63 55
20 17 16 15 17 22 28 34 41 48 52 54 55 55 57 58 59 59 61 63 65 66 69 71 70 67 70
21 19 18 18 22 27 34 42 47 51 54 56 58 59 60 61 62 62 61 64 70 71 75 74 76 78 77
23 20 19 23 27 34 41 47 49 50 53 56 58 59 60 60 60 60 61 63 65 69 75 78 78 79 83
26 21 21 27 33 40 44 45 46 48 51 55 55 56 57 58 58 58 59 59 64 66 70 75 79 80 80
25 21 25 31 38 42 41 42 44 46 49 52 54 56 57 59 59 59 61 59 59 63 68 74 79 81 80
23 24 28 35 36 36 38 40 44 47 49 52 55 56 57 60 60 58 59 62 61 55 63 71 76 78 78
23 25 30 32 34 36 38 41 45 47 49 52 55 57 58 60 60 59 56 58 57 49 48 54 44 54 55
24 27 30 31 34 36 37 40 42 46 49 52 54 57 57 56 58 56 52 50 52 50 41 31 19 14 45
26 29 29 29 33 37 40 41 42 45 48 51 54 56 56 54 51 51 39 37 41 43 39 37 48 56 33
Wind_Direction_500mb
193 204 215 225 233 239 248 245 244 245 253 260 263 264 263 264 266 266 267 265 264 260 253 253 251 252 251
197 203 206 209 213 221 226 233 243 253 259 261 263 264 266 268 269 269 267 264 264 262 259 256 254 252 254
225 227 227 225 226 222 222 223 230 246 267 282 287 287 286 281 273 271 267 267 265 261 260 257 255 251 250
225 221 214 211 210 210 215 224 253 279 289 293 294 293 291 289 287 285 281 275 270 267 261 259 255 255 251
216 207 197 193 190 184 205 243 277 287 291 291 290 289 287 284 281 279 277 274 271 266 266 265 260 257 256
210 201 195 201 213 245 277 291 296 297 297 296 293 290 287 284 279 276 273 271 268 268 268 265 263 260 256
206 208 214 231 258 279 291 300 303 305 304 302 299 297 295 291 287 281 276 270 266 263 262 263 264 258 270
216 223 238 259 283 294 298 300 302 302 301 299 298 297 295 292 288 285 281 275 268 266 264 260 260 258 256
227 234 251 274 286 290 295 299 300 300 300 300 299 297 296 292 290 286 281 276 275 271 269 265 261 256 256
237 245 264 280 287 292 295 297 299 299 300 300 300 299 298 295 292 289 287 283 277 273 272 269 267 261 257
240 248 266 278 286 291 295 298 301 303 303 303 303 304 302 300 298 295 289 285 282 278 274 273 270 268 263
236 251 268 282 289 294 299 301 303 305 305 305 304 303 301 298 297 296 294 289 284 283 281 275 274 273 270
237 257 274 285 291 296 301 306 309 311 310 309 306 304 301 299 297 295 292 290 286 284 286 285 280 278 279
246 267 282 293 298 304 310 313 314 314 312 309 306 304 301 298 295 293 290 288 286 287 286 293 305 294 288
254 270 285 297 305 309 313 315 318 318 318 314 310 305 300 293 290 290 289 287 288 285 278 268 299 283 311
259 274 288 300 309 316 321 323 325 323 321 319 316 312 305 297 289 287 292 290 288 289 288 277 259 263 290
Wind_Speed_850mb
14 14 14 14 15 15 16 16 17 18 20 24 26 30 31 30 33 36 36 36 38 39 44 51 51 49 51
14 14 14 13 12 11 10 9 10 10 11 14 16 20 25 31 37 38 41 41 42 43 45 48 53 52 54
18 18 18 17 16 14 12 11 9 9 9 11 13 16 19 23 27 33 40 46 48 48 49 50 50 55 57
14 14 14 15 14 12 10 7 5 7 10 14 18 21 25 30 32 33 34 38 46 54 57 54 57 58 62
12 11 11 9 8 7 6 7 10 15 21 25 29 32 36 39 42 44 44 43 42 49 55 61 64 64 64
15 12 12 10 8 8 12 18 23 28 33 37 41 43 45 47 49 52 55 56 55 54 53 56 57 66 70
18 17 14 12 12 15 20 26 33 40 46 50 52 53 52 52 52 54 55 58 62 63 63 61 58 63 55
20 17 16 15 17 22 28 34 41 48 52 54 55 55 57 58 59 59 61 63 65 66 69 71 70 67 70
21 19 18 18 22 27 34 42 47 51 54 56 58 59 60 61 62 62 61 64 70 71 75 74 76 78 77
23 20 19 23 27 34 41 47 49 50 53 56 58 59 60 60 60 60 61 63 65 69 75 78 78 79 83
26 21 21 27 33 40 44 45 46 48 51 55 55 56 57 58 58 58 59 59 64 66 70 75 79 80 80
25 21 25 31 38 42 41 42 44 46 49 52 54 56 57 59 59 59 61 59 59 63 68 74 79 81 80
23 24 28 35 36 36 38 40 44 47 49 52 55 56 57 60 60 58 59 62 61 55 63 71 76 78 78
23 25 30 32 34 36 38 41 45 47 49 52 55 57 58 60 60 59 56 58 57 49 48 54 44 54 55
24 27 30 31 34 36 37 40 42 46 49 52 54 57 57 56 58 56 52 50 52 50 41 31 19 14 45
26 29 29 29 33 37 40 41 42 45 48 51 54 56 56 54 51 51 39 37 41 43 39 37 48 56 33
Wind_Direction_850mb
193 204 215 225 233 239 248 245 244 245 253 260 263 264 263 264 266 266 267 265 264 260 253 253 251 252 251
197 203 206 209 213 221 226 233 243 253 259 261 263 264 266 268 269 269 267 264 264 262 259 256 254 252 254
225 227 227 225 226 222 222 223 230 246 267 282 287 287 286 281 273 271 267 267 265 261 260 257 255 251 250
225 221 214 211 210 210 215 224 253 279 289 293 294 293 291 289 287 285 281 275 270 267 261 259 255 255 251
216 207 197 193 190 184 205 243 277 287 291 291 290 289 287 284 281 279 277 274 271 266 266 265 260 257 256
210 201 195 201 213 245 277 291 296 297 297 296 293 290 287 284 279 276 273 271 268 268 268 265 263 260 256
206 208 214 231 258 279 291 300 303 305 304 302 299 297 295 291 287 281 276 270 266 263 262 263 264 258 270
216 223 238 259 283 294 298 300 302 302 301 299 298 297 295 292 288 285 281 275 268 266 264 260 260 258 256
227 234 251 274 286 290 295 299 300 300 300 300 299 297 296 292 290 286 281 276 275 271 269 265 261 256 256
237 245 264 280 287 292 295 297 299 299 300 300 300 299 298 295 292 289 287 283 277 273 272 269 267 261 257
240 248 266 278 286 291 295 298 301 303 303 303 303 304 302 300 298 295 289 285 282 278 274 273 270 268 263
236 251 268 282 289 294 299 301 303 305 305 305 304 303 301 298 297 296 294 289 284 283 281 275 274 273 270
237 257 274 285 291 296 301 306 309 311 310 309 306 304 301 299 297 295 292 290 286 284 286 285 280 278 279
246 267 282 293 298 304 310 313 314 314 312 309 306 304 301 298 295 293 290 288 286 287 286 293 305 294 288
254 270 285 297 305 309 313 315 318 318 318 314 310 305 300 293 290 290 289 287 288 285 278 268 299 283 311
259 274 288 300 309 316 321 323 325 323 321 319 316 312 305 297 289 287 292 290 288 289 288 277 259 263 290